TimeEDT,TemperatureF,Dew PointF,Humidity,Sea Level PressureIn,VisibilityMPH,Wind Direction,Wind SpeedMPH,Gust SpeedMPH,PrecipitationIn,Events,Conditions,WindDirDegrees,DateUTC
12:14 AM,59.0,54.7,86,30.08,10.0,West,8.1,-,N/A,,Overcast,260,2012-10-05 04:14:00
12:34 AM,57.6,53.1,85,30.08,10.0,West,11.5,-,N/A,Rain,Light Rain,270,2012-10-05 04:34:00
12:54 AM,56.3,52.2,86,30.09,7.0,West,8.1,-,N/A,Rain,Light Rain,280,2012-10-05 04:54:00
1:14 AM,55.4,51.8,88,30.09,7.0,West,8.1,-,N/A,Rain,Light Rain,270,2012-10-05 05:14:00
1:34 AM,54.9,51.1,87,30.08,10.0,West,5.8,-,N/A,Rain,Light Rain,260,2012-10-05 05:34:00
1:54 AM,54.5,51.3,89,30.08,7.0,West,5.8,-,N/A,Rain,Light Rain,260,2012-10-05 05:54:00
2:13 AM,54.5,51.4,89,30.09,10.0,WSW,4.6,-,N/A,,Overcast,250,2012-10-05 06:13:00
2:34 AM,54.5,51.4,89,30.09,7.0,WSW,4.6,-,N/A,Rain,Light Rain,240,2012-10-05 06:34:00
2:54 AM,54.5,51.3,89,30.07,10.0,Calm,Calm,-,N/A,,Overcast,0,2012-10-05 06:54:00
3:13 AM,54.5,51.4,89,30.07,10.0,WSW,3.5,-,N/A,,Overcast,250,2012-10-05 07:13:00
3:34 AM,54.5,51.3,89,30.08,10.0,WSW,3.5,-,N/A,,Overcast,250,2012-10-05 07:34:00
3:54 AM,54.5,51.1,88,30.08,10.0,WSW,5.8,-,N/A,,Overcast,250,2012-10-05 07:54:00
4:13 AM,54.3,50.0,85,30.09,10.0,WSW,6.9,-,N/A,,Overcast,250,2012-10-05 08:13:00
4:34 AM,53.4,48.0,82,30.10,10.0,West,8.1,-,N/A,,Scattered Clouds,270,2012-10-05 08:34:00
4:54 AM,52.3,47.3,83,30.11,10.0,West,8.1,-,N/A,,Clear,270,2012-10-05 08:54:00
5:13 AM,52.0,46.4,81,30.10,10.0,West,5.8,-,N/A,,Clear,280,2012-10-05 09:13:00
5:34 AM,51.8,45.7,80,30.10,10.0,West,5.8,-,N/A,,Scattered Clouds,270,2012-10-05 09:34:00
5:53 AM,51.3,45.7,81,30.10,10.0,West,5.8,-,N/A,,Clear,270,2012-10-05 09:53:00
6:14 AM,51.3,45.1,80,30.10,10.0,West,5.8,-,N/A,,Clear,260,2012-10-05 10:14:00
6:34 AM,50.9,44.4,78,30.10,10.0,WSW,4.6,-,N/A,,Clear,250,2012-10-05 10:34:00
6:54 AM,50.2,44.2,80,30.10,10.0,West,3.5,-,N/A,,Clear,260,2012-10-05 10:54:00
7:14 AM,49.8,44.2,81,30.09,10.0,Calm,Calm,-,N/A,,Clear,0,2012-10-05 11:14:00
7:34 AM,49.5,44.2,82,30.10,10.0,WSW,3.5,-,N/A,,Clear,250,2012-10-05 11:34:00
7:54 AM,49.8,44.4,82,30.10,10.0,WSW,3.5,-,N/A,,Mostly Cloudy,250,2012-10-05 11:54:00
8:14 AM,50.2,44.2,80,30.11,10.0,West,6.9,-,N/A,,Mostly Cloudy,270,2012-10-05 12:14:00
8:33 AM,49.8,44.2,81,30.10,10.0,WSW,3.5,-,N/A,,Scattered Clouds,250,2012-10-05 12:33:00
8:54 AM,50.0,43.9,79,30.10,10.0,WSW,4.6,-,N/A,,Clear,250,2012-10-05 12:54:00
9:14 AM,50.2,43.9,79,30.10,10.0,West,6.9,-,N/A,,Clear,270,2012-10-05 13:14:00
9:33 AM,50.0,43.9,79,30.11,10.0,West,9.2,-,N/A,,Clear,270,2012-10-05 13:33:00
9:54 AM,50.2,43.9,79,30.11,10.0,West,8.1,-,N/A,,Clear,280,2012-10-05 13:54:00
10:14 AM,50.5,43.5,77,30.10,10.0,WNW,6.9,-,N/A,,Clear,300,2012-10-05 14:14:00
10:33 AM,51.1,43.7,76,30.11,10.0,WNW,9.2,-,N/A,,Clear,290,2012-10-05 14:33:00
10:54 AM,51.3,43.3,74,30.10,10.0,West,9.2,-,N/A,,Scattered Clouds,280,2012-10-05 14:54:00
11:14 AM,52.2,43.5,72,30.10,10.0,WNW,10.4,-,N/A,,Mostly Cloudy,290,2012-10-05 15:14:00
11:34 AM,52.3,42.8,70,30.10,10.0,WNW,11.5,-,N/A,,Scattered Clouds,290,2012-10-05 15:34:00
11:54 AM,52.9,42.6,68,30.09,10.0,WNW,9.2,-,N/A,,Scattered Clouds,300,2012-10-05 15:54:00
12:13 PM,52.9,42.6,68,30.10,10.0,West,8.1,-,N/A,,Mostly Cloudy,260,2012-10-05 16:13:00
12:34 PM,53.2,42.1,66,30.09,10.0,West,9.2,-,N/A,,Overcast,270,2012-10-05 16:34:00
1:13 PM,54.3,42.4,64,30.10,10.0,West,10.4,-,N/A,,Overcast,270,2012-10-05 17:13:00
1:34 PM,54.1,41.4,62,30.09,10.0,West,8.1,-,N/A,,Overcast,270,2012-10-05 17:34:00
1:54 PM,53.2,41.2,64,30.09,10.0,West,8.1,-,N/A,,Overcast,280,2012-10-05 17:54:00
2:34 PM,51.8,40.5,65,30.08,10.0,West,8.1,16.1,N/A,,Overcast,270,2012-10-05 18:34:00
2:54 PM,50.2,42.1,74,30.07,7.0,West,8.1,-,N/A,Rain,Rain,260,2012-10-05 18:54:00
3:13 PM,49.6,44.1,81,30.05,10.0,West,3.5,-,N/A,Rain,Light Rain,260,2012-10-05 19:13:00
3:34 PM,49.3,43.7,81,30.06,10.0,West,5.8,-,N/A,,Light Drizzle,260,2012-10-05 19:34:00
3:53 PM,48.7,43.7,83,30.06,7.0,WSW,5.8,-,N/A,Rain,Light Rain,250,2012-10-05 19:53:00
4:14 PM,47.8,43.0,83,30.05,10.0,West,6.9,-,N/A,Rain,Light Rain,270,2012-10-05 20:14:00
4:33 PM,47.7,43.5,86,30.04,7.0,WSW,3.5,-,N/A,Rain,Rain,250,2012-10-05 20:33:00
4:54 PM,47.1,43.3,87,30.05,7.0,WSW,5.8,-,N/A,Rain,Light Rain,250,2012-10-05 20:54:00
5:14 PM,46.4,42.3,85,30.06,10.0,West,5.8,-,N/A,,Overcast,260,2012-10-05 21:14:00
5:33 PM,46.4,41.9,84,30.05,7.0,WSW,4.6,-,N/A,,Overcast,240,2012-10-05 21:33:00
5:54 PM,46.4,42.8,87,30.05,10.0,West,5.8,-,N/A,,Light Drizzle,280,2012-10-05 21:54:00
6:14 PM,46.0,42.1,86,30.05,7.0,West,9.2,-,N/A,,Light Drizzle,270,2012-10-05 22:14:00
6:34 PM,45.5,41.0,84,30.05,10.0,West,4.6,-,N/A,Rain,Light Rain,260,2012-10-05 22:34:00
6:54 PM,45.5,41.0,84,30.03,7.0,SW,4.6,-,N/A,Rain,Light Rain,220,2012-10-05 22:54:00
7:14 PM,45.5,41.2,85,30.04,10.0,SW,5.8,-,N/A,,Overcast,230,2012-10-05 23:14:00
7:34 PM,45.5,41.9,87,30.06,10.0,West,4.6,-,N/A,,Overcast,260,2012-10-05 23:34:00
7:54 PM,45.0,41.2,87,30.05,10.0,Calm,Calm,-,N/A,,Overcast,0,2012-10-05 23:54:00
8:13 PM,44.6,41.2,88,30.04,10.0,SW,8.1,-,N/A,Rain,Light Rain,230,2012-10-06 00:13:00
8:34 PM,44.1,41.0,89,30.04,10.0,SW,5.8,-,N/A,,Overcast,230,2012-10-06 00:34:00
8:54 PM,43.7,40.8,90,30.04,10.0,SW,4.6,-,N/A,,Overcast,220,2012-10-06 00:54:00
9:13 PM,43.3,40.5,90,30.03,10.0,SW,6.9,-,N/A,,Overcast,220,2012-10-06 01:13:00
9:34 PM,43.0,39.7,88,30.03,10.0,SW,6.9,-,N/A,,Overcast,230,2012-10-06 01:34:00
9:54 PM,42.8,39.6,88,30.02,10.0,SW,5.8,-,N/A,,Scattered Clouds,230,2012-10-06 01:54:00
10:13 PM,42.8,39.7,89,30.01,10.0,SW,5.8,-,N/A,,Mostly Cloudy,220,2012-10-06 02:13:00
10:34 PM,43.0,39.7,88,30.01,10.0,SW,5.8,-,N/A,,Overcast,220,2012-10-06 02:34:00
10:54 PM,42.8,39.6,88,30.01,10.0,WSW,4.6,-,N/A,,Overcast,240,2012-10-06 02:54:00
11:34 PM,42.6,39.4,88,30.02,10.0,WSW,3.5,-,N/A,,Mostly Cloudy,240,2012-10-06 03:34:00
11:54 PM,42.3,39.2,89,30.02,10.0,Calm,Calm,-,N/A,,Overcast,0,2012-10-06 03:54:00